Flag for U.S.A. Weather past 2 weeks in Fairfax, Virginia, U.S.A.

Now
42 °F

Clear.


Feels Like: 37 °F
Forecast: 31 / 49 °F
Wind: 8 mph from Northwest

Location: Washington-Dulles International Airport

Current Time: Dec 25, 2014 at 8:37:09 PM

Latest Report: Dec 25, 2014 at 7:52 PM


Visibility: 10 mi

Pressure: 30.19 "Hg

Humidity: 60%

Dew point: 29 °F

Location of FairfaxLocation

Historic Weather in Fairfax — Graph

°F

Fairfax temperature yesterday

Maximum temperature yesterday: 55 °F (at 11:52 PM)
Minimum temperature yesterday: 42 °F (at 12:52 AM)
Average temperature yesterday: 47 °F

Past Weeks' High & Low Weather Summary

 TemperatureHumidityPressure
High57 °F (Dec 15, 2:52 PM)100% (Dec 15, 11:52 PM)30.37 "Hg (Dec 15, 11:52 PM)
Low20 °F (Dec 20, 5:52 AM)26% (Dec 11, 8:52 PM)29.55 "Hg (Dec 24, 10:58 PM)
Average38 °F73%30.06 "Hg
* Reported Dec 10 6:52 PM — Dec 25 6:52 PM, Fairfax, Weather by CustomWeather, © 2014

Note: Actual official high and low records may vary slightly from our data, if they occured in-between our weather recording intervals... More about our weather records

Advertising

Fairfax weather history for previous 24 hours

 ConditionsComfort  
Time TempWeatherWind HumidityBarometerVisibility
6:52 PM
Dec 25
41 °FClear.5 mph65%30.15 "Hg10 mi
5:52 PM44 °FClear.8 mph58%30.12 "Hg10 mi
4:52 PM46 °FPassing clouds.7 mph54%30.09 "Hg10 mi
3:52 PM50 °FPassing clouds.12 mph48%30.07 "Hg10 mi
2:52 PM50 °FPassing clouds.15 mph48%30.02 "Hg10 mi
1:52 PM52 °FScattered clouds.16 mph45%29.98 "Hg10 mi
12:52 PM50 °FPartly sunny.17 mph48%29.96 "Hg10 mi
11:52 AM49 °FPartly sunny.17 mph50%29.94 "Hg10 mi
10:52 AM49 °FPartly sunny.9 mph52%29.94 "Hg10 mi
9:52 AM49 °FScattered clouds.18 mph50%29.89 "Hg10 mi
8:52 AM48 °FScattered clouds.13 mph52%29.85 "Hg10 mi
7:52 AM45 °FScattered clouds.3 mph68%29.81 "Hg10 mi
6:52 AM47 °FPassing clouds.5 mph69%29.77 "Hg10 mi
5:52 AM47 °FMostly cloudy.8 mph80%29.72 "Hg10 mi
4:52 AM48 °FOvercast.8 mph86%29.69 "Hg10 mi
3:52 AM49 °FLight rain. Mostly cloudy.12 mph86%29.66 "Hg10 mi
2:52 AM52 °FLight rain. Mostly cloudy.7 mph80%29.65 "Hg10 mi
1:52 AM53 °FLight rain. Mostly cloudy.8 mph89%29.63 "Hg10 mi
12:52 AM54 °FLight rain. Low clouds.8 mph100%29.60 "Hg10 mi
11:52 PM
Dec 24
55 °FMostly cloudy.10 mph96%29.56 "Hg10 mi
10:58 PM54 °FPartly cloudy.14 mph100%29.55 "Hg10 mi
9:52 PM52 °FDrizzle. Fog.9 mph100%29.56 "Hg0 mi
8:52 PM51 °FDrizzle. Fog.9 mph100%29.56 "Hg0 mi
Weather by CustomWeather, © 2014

See weather overviewHow to use our weather pages